Wind_Speed
9 11 13 16 18 19 20 22 24 25 28 29 30 31 33 34 35 35 36 35 34 33 33 33 32 33 34 33 33 34 35 37 38 40 41 43 45 47 49 50 52 54 55 57
7 8 11 12 15 18 19 20 22 25 27 27 29 30 31 32 33 33 33 33 33 33 33 33 32 32 33 33 33 34 35 36 38 40 41 43 45 47 49 50 52 54 55 57
6 8 9 10 12 15 17 19 21 24 25 26 27 27 27 29 29 29 29 28 29 30 29 30 30 31 32 32 32 33 35 36 37 39 41 43 44 46 47 49 50 52 53 55
4 6 8 8 10 13 15 18 19 21 23 24 25 25 26 26 26 28 26 26 25 25 26 27 27 28 29 29 30 31 33 34 36 38 40 41 42 44 45 46 48 50 51 52
5 5 7 8 10 13 15 17 19 21 22 23 23 24 24 24 23 24 25 24 23 24 25 25 26 27 27 28 29 31 32 33 35 36 38 39 40 41 42 44 45 47 48 47
6 7 8 9 11 12 13 15 17 18 19 19 20 21 22 22 21 21 22 22 22 23 25 26 26 27 28 29 30 31 32 33 34 35 36 37 37 38 39 41 42 42 42 41
7 8 9 10 11 12 13 14 15 16 17 18 19 20 20 20 21 21 22 22 24 25 24 25 26 27 27 28 28 29 30 31 32 32 33 33 34 35 36 37 37 37 36 34
9 9 10 11 11 12 13 14 13 14 15 16 17 18 18 19 19 20 21 21 22 22 23 23 24 25 25 26 27 28 28 28 28 29 29 29 30 31 32 32 31 31 30 29
10 11 12 12 12 13 13 13 13 13 13 14 15 15 16 17 18 19 19 19 19 20 21 21 22 23 24 25 25 26 26 26 26 26 26 26 27 27 27 27 27 26 25 24
12 12 13 13 13 13 13 13 13 13 13 12 12 13 14 15 15 15 16 16 17 17 19 20 21 22 23 23 24 23 23 23 23 23 22 22 23 23 23 23 23 22 21 20
12 13 14 14 14 14 14 14 13 13 12 12 12 12 13 12 13 13 14 14 15 17 18 19 20 21 22 22 21 20 20 20 20 19 19 20 20 20 19 19 19 19 18 17
13 14 15 15 15 14 14 14 13 12 12 11 11 10 10 10 10 11 12 12 14 15 16 17 18 19 19 18 18 18 18 18 18 17 17 17 17 17 17 17 17 16 15 14
14 15 15 16 15 15 14 13 13 12 11 10 10 9 8 8 9 9 10 11 13 14 15 16 17 17 17 17 17 17 17 17 17 16 15 15 15 15 15 15 15 14 13 12
14 15 15 16 15 14 14 13 12 11 10 9 8 8 8 8 8 9 10 11 13 13 14 14 15 15 15 15 15 15 15 15 14 13 13 12 12 12 12 12 12 11 11 10
15 15 16 16 15 14 14 13 12 10 9 8 8 8 8 8 9 9 10 11 12 13 13 13 14 14 14 14 14 14 13 13 12 11 11 10 10 10 10 10 10 9 9 9
15 15 16 15 15 14 13 12 11 10 9 8 8 8 8 8 9 10 11 11 12 12 13 13 13 14 14 13 13 13 12 12 11 10 9 9 8 8 9 9 9 8 8 8
15 15 16 15 15 14 13 12 11 10 9 9 9 8 8 9 10 11 11 11 12 12 13 13 13 14 14 14 13 12 12 11 10 10 9 8 7 7 8 8 7 7 7 8
14 15 16 15 14 13 13 12 11 10 9 9 9 9 9 9 10 11 12 12 12 12 13 14 14 14 15 14 13 12 11 10 10 9 8 7 7 7 7 6 6 6 6 7
14 15 15 15 14 13 13 12 11 10 9 9 9 9 9 10 11 12 13 13 13 14 14 14 15 15 15 14 13 12 11 11 10 9 8 7 7 6 6 6 5 5 6 6
13 14 14 14 13 13 12 12 10 9 9 9 9 9 10 11 11 12 14 14 14 15 15 15 16 16 16 15 15 14 12 11 10 9 8 8 7 6 6 5 5 5 5 5
12 13 13 13 13 12 12 11 10 9 8 8 8 9 10 11 12 13 14 15 15 15 16 16 16 17 17 17 16 15 14 12 11 10 9 8 7 7 6 6 5 5 5 5
11 11 12 12 12 11 11 10 9 8 8 8 8 9 10 11 12 13 14 15 15 15 16 17 17 18 18 17 17 17 15 14 12 11 10 9 8 7 7 6 6 6 6 6
10 10 11 11 11 10 10 9 8 8 7 7 7 8 9 10 12 12 13 14 15 15 16 17 18 18 18 18 18 18 17 16 15 14 13 12 11 9 8 7 7 7 7 7
9 9 9 10 10 9 9 8 7 7 6 6 7 7 8 9 11 12 13 13 14 15 16 17 18 18 18 18 18 17 17 17 16 15 15 14 12 11 10 9 9 8 8 8
9 9 9 9 9 8 8 7 7 6 5 5 5 6 7 8 9 10 11 12 14 15 15 16 18 18 18 18 18 17 17 17 17 16 16 15 14 13 12 11 11 10 10 10
9 9 8 8 8 8 8 7 6 6 5 5 5 5 6 7 8 9 10 11 12 13 15 15 17 18 18 18 18 18 17 17 17 17 17 16 16 15 14 14 13 12 12 12
10 9 9 8 8 8 7 7 6 6 5 5 5 5 5 5 6 7 8 9 10 11 13 14 15 16 17 18 17 17 17 17 17 17 17 16 16 15 15 14 14 13 13 13
Wind_Direction
223 227 234 236 238 240 242 244 247 249 252 255 257 260 262 266 269 271 271 273 277 275 274 273 274 274 274 273 276 279 280 281 282 284 286 287 289 289 290 291 293 294 294 294
237 240 242 248 246 247 249 252 255 256 258 260 263 266 267 268 270 271 272 274 277 277 277 275 275 276 279 279 279 281 282 283 284 286 288 289 290 291 293 294 295 296 296 297
252 253 252 257 261 257 257 259 261 261 263 263 266 269 269 270 271 274 275 277 277 276 275 276 277 278 281 282 282 282 282 284 286 287 289 291 293 294 295 297 298 299 299 299
279 274 268 275 271 268 264 264 267 267 267 268 269 272 270 269 270 271 275 279 279 278 279 281 281 282 283 284 284 285 286 286 288 289 292 293 295 297 299 300 301 303 304 305
303 290 286 285 282 280 275 270 272 272 272 271 271 269 267 268 269 271 273 273 274 275 279 281 282 283 284 286 287 288 289 291 292 294 295 297 298 300 302 303 305 306 307 308
315 306 299 294 290 287 283 279 279 278 276 274 272 269 270 273 272 271 270 270 273 276 278 280 283 285 286 288 289 290 292 294 296 297 298 300 302 303 305 307 308 310 311 313
329 319 312 309 303 299 294 292 287 283 281 278 275 275 274 274 272 274 275 277 278 280 282 284 286 288 289 290 292 294 295 296 297 298 300 302 305 307 309 311 313 315 316 318
339 334 325 320 314 308 304 303 300 294 290 285 281 279 276 272 272 274 274 275 276 279 283 285 287 289 292 294 296 297 297 298 299 301 303 305 309 312 314 315 317 319 321 324
343 339 333 328 323 318 313 310 307 302 296 290 282 281 279 278 278 277 276 277 279 283 286 289 293 295 296 297 298 299 300 301 302 305 307 310 314 317 318 320 322 324 327 330
346 343 340 337 333 329 324 319 314 308 303 301 291 287 285 282 281 281 282 285 288 291 295 298 299 300 300 301 301 301 302 303 305 308 311 315 318 321 322 325 328 331 334 337
349 348 346 344 339 335 331 326 322 319 315 311 305 301 293 288 285 287 291 294 296 299 302 303 304 304 304 303 303 303 304 306 309 312 315 318 321 325 328 332 335 338 341 345
352 350 348 346 343 339 336 333 330 326 323 318 314 311 305 299 296 298 301 303 305 306 307 309 309 309 309 307 306 307 308 310 311 311 314 318 323 328 332 337 341 344 348 354
353 351 350 349 346 344 342 340 338 336 332 328 325 323 319 317 315 314 313 312 312 312 314 316 317 317 316 314 312 310 310 310 310 310 312 317 322 328 334 340 345 351 357 4
354 352 351 350 349 348 347 346 345 344 341 339 336 334 332 330 328 325 323 322 322 323 324 325 327 327 327 325 322 318 316 315 314 314 316 321 326 332 339 346 352 359 7 16
356 355 353 352 353 353 352 352 352 352 350 350 349 347 345 342 339 335 334 334 334 335 335 335 336 336 336 335 332 329 327 325 323 322 323 326 331 337 345 354 1 10 20 30
357 356 355 356 356 356 356 356 357 357 357 357 358 357 356 354 352 351 350 349 347 345 343 342 341 341 340 339 338 337 336 335 332 332 334 335 339 344 351 360 8 18 29 38
356 357 358 359 360 359 360 1 2 3 5 6 5 5 5 5 2 2 2 1 357 355 354 352 350 347 347 344 342 342 342 341 341 345 348 348 349 351 355 3 14 26 33 39
355 357 359 0 2 3 3 5 6 8 10 11 12 12 13 13 12 11 9 6 5 4 2 1 359 356 355 356 353 351 350 350 351 353 355 355 356 358 1 8 18 26 32 38
352 354 357 1 4 6 7 7 9 12 15 17 19 21 23 21 19 17 14 12 10 7 5 4 3 2 3 4 4 2 0 0 3 5 5 5 5 5 7 12 19 25 31 37
349 353 357 1 5 7 8 10 12 15 19 22 25 26 26 23 21 19 17 17 16 14 11 9 9 10 11 11 11 10 8 7 8 9 10 11 11 12 15 19 24 30 34 38
344 350 356 360 3 6 8 10 13 17 20 23 24 24 24 21 21 21 21 21 20 18 17 17 17 16 16 16 16 17 17 16 15 16 18 20 20 21 26 30 33 37 39 40
338 346 352 357 360 3 6 8 11 15 18 20 21 20 21 20 20 22 22 22 21 23 23 24 23 22 22 22 23 24 26 27 27 29 31 31 31 32 36 40 43 45 47 46
331 339 346 351 356 359 2 4 7 10 13 15 17 19 19 20 21 24 24 23 24 26 27 27 26 26 26 27 28 31 33 35 36 38 39 39 40 41 44 47 50 52 52 51
320 330 337 343 348 352 354 357 360 3 4 6 11 15 17 19 22 25 26 25 27 29 29 29 28 28 28 29 32 34 36 38 39 40 41 42 44 46 49 52 55 55 54 54
306 317 325 331 337 342 344 345 349 351 352 355 0 6 11 14 18 22 24 24 26 29 30 30 30 31 31 33 35 37 38 39 40 41 42 43 45 48 51 53 55 56 57 58
291 302 311 318 324 330 332 333 335 335 335 337 344 352 359 6 12 17 19 21 24 27 28 29 31 32 34 35 37 38 39 40 41 42 43 45 47 50 53 55 57 59 59 61
278 288 296 303 310 316 319 318 318 319 318 316 319 328 336 344 354 4 9 13 17 22 25 28 30 32 34 35 37 38 39 40 41 42 43 45 47 49 52 54 55 57 59 60
Height
5744 5745 5747 5748 5750 5751 5753 5754 5756 5757 5758 5760 5761 5761 5762 5762 5763 5763 5763 5763 5762 5762 5761 5761 5760 5760 5759 5758 5757 5756 5755 5753 5751 5749 5746 5743 5740 5737 5733 5728 5724 5719 5715 5709
5744 5744 5745 5746 5747 5748 5750 5751 5751 5752 5753 5754 5754 5755 5755 5755 5756 5755 5755 5755 5755 5754 5753 5752 5752 5751 5750 5749 5748 5747 5745 5743 5741 5739 5736 5733 5729 5725 5721 5717 5712 5707 5702 5696
5743 5743 5744 5745 5745 5745 5746 5746 5747 5747 5749 5749 5749 5749 5749 5748 5748 5748 5747 5747 5747 5746 5745 5744 5743 5742 5742 5740 5739 5738 5736 5734 5731 5729 5726 5722 5719 5714 5710 5705 5700 5695 5689 5682
5742 5743 5742 5745 5742 5742 5742 5742 5742 5742 5743 5743 5743 5743 5742 5742 5741 5741 5740 5740 5739 5738 5737 5737 5735 5734 5733 5732 5731 5729 5727 5724 5722 5719 5716 5712 5708 5704 5699 5694 5689 5683 5676 5669
5741 5741 5741 5741 5739 5738 5738 5738 5737 5737 5737 5737 5737 5736 5736 5735 5735 5734 5734 5733 5732 5731 5730 5729 5728 5727 5726 5724 5722 5720 5718 5716 5713 5710 5706 5703 5699 5694 5689 5683 5678 5672 5665 5658
5740 5739 5738 5739 5737 5735 5735 5733 5733 5732 5731 5731 5731 5730 5730 5729 5728 5728 5727 5727 5726 5724 5723 5722 5721 5719 5718 5716 5714 5712 5709 5707 5704 5701 5697 5694 5689 5685 5680 5674 5668 5662 5655 5649
5738 5737 5736 5735 5733 5733 5732 5731 5728 5726 5726 5725 5725 5725 5724 5722 5722 5721 5721 5720 5719 5718 5717 5715 5714 5712 5710 5709 5706 5704 5701 5699 5696 5693 5689 5686 5681 5677 5672 5666 5660 5654 5648 5642
5737 5735 5736 5732 5730 5729 5728 5725 5723 5722 5721 5720 5719 5718 5717 5717 5716 5716 5715 5714 5713 5712 5710 5709 5707 5705 5703 5701 5699 5697 5694 5691 5689 5686 5682 5678 5674 5669 5665 5659 5654 5648 5643 5637
5737 5736 5732 5730 5728 5726 5723 5722 5720 5718 5716 5715 5714 5713 5712 5712 5711 5710 5709 5709 5707 5706 5704 5703 5701 5699 5697 5695 5693 5690 5687 5684 5682 5679 5675 5672 5668 5664 5659 5654 5649 5644 5638 5633
5735 5732 5730 5727 5725 5723 5720 5718 5716 5714 5713 5711 5710 5709 5708 5707 5706 5705 5705 5703 5702 5701 5699 5697 5696 5693 5691 5689 5686 5684 5681 5679 5676 5673 5669 5666 5663 5659 5654 5650 5645 5640 5635 5631
5734 5731 5728 5726 5723 5720 5718 5715 5713 5711 5710 5708 5707 5705 5704 5703 5703 5702 5700 5699 5698 5697 5695 5693 5691 5688 5686 5683 5680 5678 5676 5673 5670 5667 5665 5662 5658 5655 5651 5647 5642 5638 5634 5629
5733 5730 5728 5725 5721 5719 5716 5713 5711 5709 5707 5706 5704 5703 5702 5701 5700 5699 5698 5696 5695 5693 5691 5689 5686 5683 5681 5678 5675 5673 5670 5668 5665 5663 5660 5658 5655 5652 5648 5644 5640 5636 5632 5629
5732 5729 5726 5723 5720 5717 5714 5712 5709 5707 5705 5704 5702 5701 5700 5699 5697 5696 5695 5694 5692 5690 5688 5685 5682 5679 5676 5673 5671 5668 5666 5663 5661 5659 5656 5654 5651 5649 5646 5643 5639 5635 5632 5629
5731 5728 5725 5722 5719 5716 5713 5711 5708 5706 5704 5702 5701 5700 5698 5697 5696 5695 5693 5692 5689 5687 5684 5682 5679 5676 5673 5670 5667 5664 5662 5659 5657 5654 5653 5651 5649 5646 5644 5641 5638 5635 5632 5629
5730 5727 5725 5721 5718 5715 5712 5710 5707 5705 5704 5702 5701 5699 5698 5697 5695 5694 5692 5689 5687 5684 5682 5679 5676 5674 5670 5667 5664 5662 5659 5656 5653 5651 5650 5648 5646 5645 5643 5640 5638 5635 5633 5631
5730 5727 5724 5721 5718 5715 5712 5709 5707 5705 5704 5702 5700 5699 5698 5696 5695 5693 5690 5688 5686 5683 5680 5677 5675 5672 5669 5666 5663 5660 5657 5654 5651 5649 5647 5646 5644 5643 5642 5640 5638 5636 5634 5632
5729 5726 5723 5720 5717 5714 5712 5709 5707 5705 5704 5702 5701 5699 5698 5696 5694 5692 5690 5687 5685 5682 5679 5676 5674 5671 5667 5664 5661 5658 5655 5652 5650 5648 5646 5645 5644 5642 5641 5640 5638 5636 5635 5633
5729 5726 5723 5720 5717 5714 5711 5709 5707 5706 5704 5703 5701 5700 5698 5696 5695 5692 5690 5687 5685 5682 5679 5676 5673 5670 5666 5663 5660 5657 5654 5652 5649 5647 5646 5644 5643 5642 5641 5640 5638 5637 5636 5635
5728 5725 5722 5720 5717 5714 5712 5710 5708 5706 5705 5703 5702 5700 5699 5697 5695 5693 5690 5688 5685 5682 5679 5676 5673 5669 5666 5662 5659 5656 5653 5651 5649 5647 5645 5644 5643 5642 5641 5640 5639 5638 5637 5636
5727 5725 5722 5719 5717 5714 5712 5710 5708 5707 5706 5704 5703 5702 5700 5698 5696 5694 5691 5688 5685 5682 5679 5676 5673 5669 5666 5663 5659 5656 5654 5651 5649 5647 5646 5644 5643 5642 5641 5640 5639 5638 5637 5637
5726 5724 5721 5719 5717 5715 5713 5711 5709 5708 5707 5705 5704 5703 5701 5699 5697 5695 5692 5689 5687 5683 5680 5677 5674 5670 5667 5664 5660 5657 5654 5652 5650 5648 5646 5645 5643 5642 5641 5640 5640 5639 5638 5637
5725 5723 5721 5719 5717 5715 5713 5711 5710 5709 5707 5706 5705 5704 5702 5700 5698 5696 5694 5691 5688 5685 5682 5679 5676 5672 5669 5665 5662 5659 5656 5653 5651 5649 5647 5646 5644 5643 5642 5641 5641 5640 5639 5639
5723 5722 5720 5718 5716 5715 5713 5711 5710 5709 5708 5707 5706 5705 5703 5702 5700 5697 5695 5693 5690 5687 5684 5681 5678 5675 5671 5668 5665 5662 5659 5656 5654 5652 5650 5648 5647 5645 5644 5643 5642 5642 5641 5640
5721 5720 5718 5717 5715 5714 5713 5711 5710 5709 5708 5708 5706 5705 5704 5703 5701 5699 5697 5695 5693 5690 5687 5684 5681 5678 5674 5671 5668 5665 5663 5660 5658 5655 5653 5651 5649 5648 5646 5645 5644 5644 5643 5642
5719 5718 5717 5716 5714 5713 5712 5711 5710 5709 5708 5708 5707 5706 5705 5704 5702 5701 5699 5697 5695 5692 5689 5687 5684 5681 5678 5675 5672 5669 5667 5664 5662 5659 5657 5655 5653 5651 5650 5648 5647 5646 5645 5645
5716 5716 5715 5714 5713 5712 5711 5710 5709 5708 5708 5707 5707 5706 5705 5704 5703 5702 5700 5699 5697 5694 5692 5689 5687 5684 5681 5678 5675 5673 5671 5668 5666 5663 5661 5659 5657 5655 5653 5652 5651 5650 5649 5648
5713 5713 5712 5712 5711 5710 5709 5709 5708 5707 5707 5707 5706 5706 5705 5705 5704 5703 5701 5700 5698 5697 5694 5692 5690 5687 5684 5682 5679 5677 5674 5672 5670 5667 5665 5663 5661 5659 5658 5656 5655 5653 5652 5651